Weather Service Report


141 
ASUS44 KLIX 010310
RWRLA 
LOUISIANA WEATHER ROUNDUP
NATIONAL WEATHER SERVICE NEW ORLEANS LA
1000 PM CDT THU JUL 31 2014

NOTE: "FAIR" INDICATES FEW OR NO CLOUDS BELOW 12,000 FEET WITH NO
      SIGNIFICANT WEATHER AND/OR OBSTRUCTIONS TO VISIBILITY.
      SKY/WX - SKY CONDITION AND SIGNIFICANT WEATHER.
      TMP - AIR TEMPERATURE.    DP   - DEWPOINT TEMPERATURE.
      RH  - RELATIVE HUMIDITY.  PRES - PRESSURE.
      HX  - HEAT INDEX.         WCI  - WIND CHILL INDEX.

*  THESE STATIONS ARE NOT NWS OR FAA STATIONS AND ARE NOT UNDER
   NWS QUALITY CONTROL.

LAZ040-048-061>063-065-066-069-010400-
SOUTHEAST LOUISIANA
  
CITY           SKY/WX    TMP DP  RH WIND       PRES   REMARKS
N.O. AUDUBON     N/A     84  70  63 MISG        N/A                   
N.O. INTL ARPT MOCLDY    79  69  71 SE5       29.99R                  
N.O. LAKEFRONT PTCLDY    82  69  64 SE6       30.00R                  
N.O. DOWNTOWN* FAIR      82  66  57 S5        30.00R                  
SLIDELL        CLEAR     73  70  90 N5        29.99S                  
BATON ROUGE    MOCLDY    77  68  73 E7        29.98R                  
BOOTHVILLE     PTCLDY    79  68  69 E3        30.00S                  
BELLE CHASSE   MOCLDY    75  70  84 CALM      29.99R                  
BOGALUSA*      FAIR      75  67  76 CALM      30.02R                  
GALLIANO*      NOT AVBL                                               
NEW ROADS*     FAIR      77  66  67 E5        29.99R                  
GONZALES*      FAIR      79  70  74 CALM      29.98R                  
HAMMOND*       PTCLDY    77  66  69 E6        30.01S                  
HOUMA*         CLEAR     76  69  79 CALM      29.98S                  
PORT FOURCHON* CLEAR     82  70  65 SE8       30.01R                  

$$

LAZ041-044-053-054-010400-
SOUTHWEST LOUISIANA
  
CITY           SKY/WX    TMP DP  RH WIND       PRES   REMARKS
LAKE CHARLES   LGT RAIN  81  76  84 S6        29.96R                  
LAFAYETTE      CLOUDY    81  73  76 S3        29.98R                  
PATTERSON      MOCLDY    75  73  94 SE6       30.01S                  
SALT POINT       N/A     83  75  77 CALM      29.97R                  
NEW IBERIA     MOCLDY    80  72  76 CALM      29.98R                  
CHENAULT AIRPK LGT RAIN  80  74  83 SE6       29.98R                  

$$

LAZ027-028-010400-
CENTRAL LOUISIANA
  
CITY           SKY/WX    TMP DP  RH WIND       PRES   REMARKS
FORT POLK      MOCLDY    78  70  76 SE9       29.97R                  
ALEXANDRIA INT MOCLDY    78  68  71 E6        29.97R                  
ALEXANDRIA     MOCLDY    77  71  82 CALM      29.98R                  

$$

LAZ001-002-010400-
NORTHWEST LOUISIANA
  
CITY           SKY/WX    TMP DP  RH WIND       PRES   REMARKS
SHREVEPORT     RAIN      72  68  88 E14G20    29.97F FOG              
BARKSDALE AFB  NOT AVBL                                               
DTN SHREVEPORT RAIN      70  66  88 E10G17    29.98R FOG              

$$

LAZ014-016-010400-
NORTHEAST LOUISIANA
  
CITY           SKY/WX    TMP DP  RH WIND       PRES   REMARKS
MONROE         RAIN      72  68  87 E6        30.02R FOG              
TALLULAH       CLOUDY    73  68  84 E3        30.01S                  

$$



144 
ASUS44 KLIX 010310
RWRLIX
NEW ORLEANS REGIONAL WEATHER ROUNDUP
NATIONAL WEATHER SERVICE NEW ORLEANS LA
1000 PM CDT THU JUL 31 2014

NOTE: "FAIR" INDICATES FEW OR NO CLOUDS BELOW 12,000 FEET WITH NO
      SIGNIFICANT WEATHER AND/OR OBSTRUCTIONS TO VISIBILITY.
      SKY/WX - SKY CONDITION AND SIGNIFICANT WEATHER.
      TMP - AIR TEMPERATURE.     DP    - DEWPOINT TEMPERATURE.
      RH  - RELATIVE HUMIDITY.   PRES  - PRESSURE.
      HI  - HEAT INDEX.          WCI   - WIND CHILL INDEX.

*  THESE STATIONS ARE NOT NWS OR FAA STATIONS AND ARE NOT UNDER
   NWS QUALITY CONTROL. 

LAZ038-040-048-061>063-065>067-069-010400-
SOUTHEAST LOUISIANA
  
CITY           SKY/WX    TMP DP  RH WIND       PRES   REMARKS
N.O. AUDUBON     N/A     84  70  63 MISG        N/A                   
N.O. INTL ARPT MOCLDY    79  69  71 SE5       29.99R                  
N.O. LAKEFRONT PTCLDY    82  69  64 SE6       30.00R                  
N.O. DOWNTOWN*   N/A     82  66  57 S5        30.00R                  
SLIDELL        CLEAR     73  70  90 N5        29.99S                  
BATON ROUGE    MOCLDY    77  68  73 E7        29.98R                  
BOOTHVILLE     PTCLDY    79  68  69 E3        30.00S                  
BELLE CHASSE   MOCLDY    75  70  84 CALM      29.99R                  
BOGALUSA*        N/A     75  67  76 CALM      30.02R                  
GALLIANO*      NOT AVBL                                               
NEW ROADS*       N/A     77  66  67 E5        29.99R                  
GONZALES*        N/A     79  70  74 CALM      29.98R                  
HAMMOND*       PTCLDY    77  66  69 E6        30.01S                  
HOUMA*         CLEAR     76  69  79 CALM      29.98S                  
PORT FOURCHON* CLEAR     82  70  65 SE8       30.01R                  

$$

MSZ070-080>082-010400-
SOUTHERN MISSISSIPPI
  
CITY           SKY/WX    TMP DP  RH WIND       PRES   REMARKS
MCCOMB         PTCLDY    74  64  71 VRB3      30.01S                  
GULFPORT       PTCLDY    80  66  62 N6        29.99R                  
BILOXI         PTCLDY    77  66  68 NE6       30.00R                  
PASCAGOULA     PTCLDY    71  68  90 CALM      30.00R                  

$$

COASTAL OBSERVATIONS
LAKE AND NEARSHORE STATIONS
  
STATION/POSITION TIME  TEMP    WIND        PRES    WAVE
                       AIR SEA DIR/SP/G            HT/PER
                 (UTC) (F)     (DEG/KT/KT) (MB)    (FT/S)
PASCAGOULA       0300   78     300/  4/  5 1015.4
WAVELAND YACHT   0300   81      30/  8/  9 1015.1
GRAND ISLE       0300   82 88  100/  4/  6 1016.3
SOUTHWEST PASS   0300   82 86   50/  5/  6 1016.3
NEW CANAL        0300   82 84  140/  2/  4 1015.9
SHELL BEACH      0300   81 83  130/  3/  5 1015.5

OFFSHORE STATIONS
  
STATION/POSITION TIME  TEMP    WIND        PRES    WAVE
                       AIR SEA DIR/SP/G            HT/PER
                 (UTC) (F)     (DEG/KT/KT) (MB)    (FT/S)
64 S DAUPHIN ISL 0249   82 85   20/  2/  4 1016.2

$$


Return to Home page


Western Regional Climate Center, wrcc@dri.edu